• In Uzbekistan
  • List of Countries
  • For 7 days
  • Water Temperature
  • Satellite Maps
  • Weather Map
  • Weather Widgets
  • user-avatar
    Login

    Hourly Weather Satif

    Today, 18 October, Wednesday

    Time Temperature Precipitation Wind Pressure Humidity
    00:00 +16°C° 0 mm 2 mps 676 mmHg 48%
    01:00 +15°C° 0 mm 2 mps 676 mmHg 49%
    02:00 +15°C° 0 mm 2 mps 675 mmHg 50%
    03:00 +14°C° 0 mm 2 mps 675 mmHg 51%
    04:00 +14°C° 0 mm 2 mps 675 mmHg 52%
    05:00 +14°C° 0 mm 2 mps 674 mmHg 53%
    06:00 +14°C° 0 mm 2 mps 674 mmHg 53%
    07:00 +15°C° 0 mm 2 mps 675 mmHg 48%
    08:00 +17°C° 0 mm 2 mps 675 mmHg 42%
    09:00 +19°C° 0 mm 3 mps 676 mmHg 36%
    10:00 +20°C° 0 mm 3 mps 675 mmHg 33%
    11:00 +21°C° 0 mm 3 mps 675 mmHg 30%
    12:00 +22°C° 0 mm 4 mps 675 mmHg 26%
    13:00 +22°C° 0 mm 4 mps 675 mmHg 26%
    14:00 +22°C° 0 mm 4 mps 674 mmHg 26%
    15:00 +21°C° 0 mm 4 mps 673 mmHg 26%
    16:00 +21°C° 0 mm 3 mps 673 mmHg 28%
    17:00 +20°C° 0 mm 3 mps 673 mmHg 31%
    18:00 +19°C° 0 mm 3 mps 673 mmHg 34%
    19:00 +18°C° 0 mm 3 mps 673 mmHg 35%
    20:00 +18°C° 0 mm 2 mps 673 mmHg 36%
    21:00 +17°C° 0 mm 2 mps 673 mmHg 37%
    22:00 +17°C° 0 mm 2 mps 673 mmHg 38%
    23:00 +16°C° 0 mm 2 mps 672 mmHg 40%

    Tomorrow, 19 October, Thursday

    Time Temperature Precipitation Wind Pressure Humidity
    00:00 +16°C° 0 mm 3 mps 672 mmHg 41%
    01:00 +16°C° 0 mm 2 mps 672 mmHg 43%
    02:00 +15°C° 0 mm 2 mps 672 mmHg 45%
    03:00 +15°C° 0 mm 2 mps 672 mmHg 48%
    04:00 +15°C° 0 mm 2 mps 672 mmHg 49%
    05:00 +15°C° 0 mm 2 mps 671 mmHg 49%
    06:00 +14°C° 0 mm 2 mps 671 mmHg 50%
    07:00 +16°C° 0 mm 3 mps 672 mmHg 46%
    08:00 +17°C° 0 mm 3 mps 672 mmHg 42%
    09:00 +18°C° 0 mm 4 mps 673 mmHg 39%
    10:00 +19°C° 0 mm 5 mps 672 mmHg 38%
    11:00 +20°C° 0 mm 6 mps 672 mmHg 38%
    12:00 +20°C° 0 mm 7 mps 672 mmHg 38%
    13:00 +20°C° 0.2 mm 7 mps 672 mmHg 41%
    14:00 +18°C° 0.2 mm 7 mps 671 mmHg 45%
    15:00 +17°C° 0.2 mm 7 mps 671 mmHg 48%
    16:00 +16°C° 0.6 mm 6 mps 671 mmHg 54%
    17:00 +15°C° 0.6 mm 5 mps 671 mmHg 59%
    18:00 +15°C° 0.6 mm 5 mps 671 mmHg 65%
    19:00 +14°C° 0.9 mm 4 mps 671 mmHg 69%
    20:00 +14°C° 0.9 mm 4 mps 671 mmHg 72%
    21:00 +14°C° 0.9 mm 4 mps 671 mmHg 76%
    22:00 +13°C° 1.5 mm 4 mps 671 mmHg 77%
    23:00 +13°C° 1.5 mm 4 mps 671 mmHg 79%

    Day after tomorrow, 20 October, Friday

    Time Temperature Precipitation Wind Pressure Humidity
    00:00 +13°C° 1.5 mm 3 mps 671 mmHg 80%
    01:00 +13°C° 0.6 mm 3 mps 670 mmHg 80%
    02:00 +13°C° 0.6 mm 3 mps 670 mmHg 79%
    03:00 +12°C° 0.6 mm 3 mps 670 mmHg 78%
    04:00 +13°C° 0 mm 2 mps 670 mmHg 79%
    05:00 +13°C° 0 mm 2 mps 670 mmHg 80%
    06:00 +12°C° 0 mm 2 mps 670 mmHg 81%
    07:00 +13°C° 0 mm 2 mps 671 mmHg 72%
    08:00 +13°C° 0 mm 3 mps 671 mmHg 63%
    09:00 +14°C° 0 mm 3 mps 672 mmHg 54%
    10:00 +15°C° 0.1 mm 4 mps 672 mmHg 52%
    11:00 +15°C° 0.1 mm 4 mps 672 mmHg 51%
    12:00 +16°C° 0.1 mm 5 mps 672 mmHg 49%
    13:00 +16°C° 0.1 mm 5 mps 672 mmHg 51%
    14:00 +16°C° 0.1 mm 5 mps 672 mmHg 52%
    15:00 +15°C° 0.1 mm 5 mps 672 mmHg 54%
    16:00 +15°C° 0 mm 4 mps 672 mmHg 58%
    17:00 +14°C° 0 mm 3 mps 673 mmHg 62%
    18:00 +14°C° 0 mm 2 mps 673 mmHg 67%
    19:00 +14°C° 0 mm 2 mps 673 mmHg 70%
    20:00 +14°C° 0 mm 2 mps 673 mmHg 73%
    21:00 +13°C° 0 mm 1 mps 674 mmHg 76%
    22:00 +13°C° 0 mm 1 mps 674 mmHg 78%
    23:00 +13°C° 0 mm 1 mps 674 mmHg 79%

    21 October, Saturday

    Time Temperature Precipitation Wind Pressure Humidity
    00:00 +12°C° 0 mm 1 mps 674 mmHg 81%
    01:00 +12°C° 0 mm 1 mps 673 mmHg 82%
    02:00 +12°C° 0 mm 1 mps 673 mmHg 83%
    03:00 +11°C° 0 mm 1 mps 673 mmHg 84%
    04:00 +11°C° 0 mm 1 mps 674 mmHg 85%
    05:00 +11°C° 0 mm 1 mps 674 mmHg 85%
    06:00 +11°C° 0 mm 1 mps 674 mmHg 85%
    07:00 +13°C° 0 mm 1 mps 675 mmHg 79%
    08:00 +14°C° 0 mm 1 mps 675 mmHg 72%
    09:00 +15°C° 0 mm 1 mps 676 mmHg 66%
    10:00 +16°C° 0 mm 1 mps 676 mmHg 63%
    11:00 +17°C° 0 mm 2 mps 676 mmHg 60%
    12:00 +18°C° 0 mm 2 mps 676 mmHg 57%
    13:00 +18°C° 0 mm 2 mps 676 mmHg 57%
    14:00 +19°C° 0 mm 2 mps 676 mmHg 57%
    15:00 +19°C° 0 mm 2 mps 676 mmHg 58%
    16:00 +18°C° 0 mm 2 mps 676 mmHg 62%
    17:00 +17°C° 0 mm 2 mps 676 mmHg 67%
    18:00 +17°C° 0 mm 2 mps 676 mmHg 72%
    19:00 +16°C° 0 mm 1 mps 676 mmHg 75%
    20:00 +16°C° 0 mm 1 mps 676 mmHg 78%
    21:00 +14°C° 0 mm 0 mps 676 mmHg 81%
    22:00 +14°C° 0 mm 0 mps 676 mmHg 81%
    23:00 +15°C° 0 mm 1 mps 676 mmHg 81%

    22 October, Sunday

    Time Temperature Precipitation Wind Pressure Humidity
    00:00 +14°C° 0 mm 1 mps 675 mmHg 80%
    01:00 +14°C° 0 mm 1 mps 675 mmHg 80%
    02:00 +14°C° 0 mm 1 mps 675 mmHg 79%
    03:00 +14°C° 0 mm 1 mps 675 mmHg 78%
    04:00 +14°C° 0 mm 1 mps 675 mmHg 78%
    05:00 +14°C° 0 mm 1 mps 675 mmHg 78%
    06:00 +13°C° 0 mm 1 mps 675 mmHg 78%
    07:00 +15°C° 0 mm 1 mps 676 mmHg 70%
    08:00 +18°C° 0 mm 1 mps 676 mmHg 62%
    09:00 +18°C° 0 mm 2 mps 677 mmHg 55%
    10:00 +19°C° 0 mm 2 mps 677 mmHg 52%
    11:00 +20°C° 0 mm 2 mps 677 mmHg 49%
    12:00 +21°C° 0 mm 3 mps 677 mmHg 46%
    13:00 +21°C° 0 mm 3 mps 677 mmHg 48%
    14:00 +21°C° 0 mm 3 mps 677 mmHg 50%
    15:00 +20°C° 0 mm 4 mps 676 mmHg 52%
    16:00 +19°C° 0.1 mm 4 mps 676 mmHg 58%
    17:00 +18°C° 0.1 mm 3 mps 677 mmHg 65%
    18:00 +17°C° 0.1 mm 3 mps 677 mmHg 72%
    19:00 +16°C° 0.1 mm 3 mps 677 mmHg 75%
    20:00 +16°C° 0.1 mm 2 mps 677 mmHg 79%
    21:00 +15°C° 0.1 mm 2 mps 677 mmHg 83%
    22:00 +15°C° 0.1 mm 2 mps 677 mmHg 84%
    23:00 +15°C° 0.1 mm 2 mps 677 mmHg 85%

    23 October, Monday

    Time Temperature Precipitation Wind Pressure Humidity
    00:00 +14°C° 0.1 mm 2 mps 677 mmHg 86%
    01:00 +14°C° 0.1 mm 2 mps 677 mmHg 86%
    02:00 +14°C° 0.1 mm 2 mps 677 mmHg 86%
    03:00 +13°C° 0.1 mm 2 mps 676 mmHg 86%
    04:00 +13°C° 0 mm 2 mps 676 mmHg 86%
    05:00 +13°C° 0 mm 2 mps 676 mmHg 86%
    06:00 +12°C° 0 mm 2 mps 676 mmHg 86%
    07:00 +13°C° 0 mm 2 mps 677 mmHg 79%
    08:00 +14°C° 0 mm 2 mps 677 mmHg 73%
    09:00 +14°C° 0 mm 2 mps 678 mmHg 66%
    10:00 +15°C° 0 mm 2 mps 677 mmHg 60%
    11:00 +16°C° 0 mm 2 mps 677 mmHg 54%
    12:00 +17°C° 0 mm 2 mps 677 mmHg 48%
    13:00 +17°C° 0 mm 2 mps 677 mmHg 47%
    14:00 +17°C° 0 mm 2 mps 677 mmHg 46%
    15:00 +17°C° 0 mm 3 mps 677 mmHg 45%
    16:00 +17°C° 0 mm 2 mps 677 mmHg 50%
    17:00 +16°C° 0 mm 2 mps 676 mmHg 55%
    18:00 +15°C° 0 mm 2 mps 676 mmHg 61%
    19:00 +14°C° 0 mm 2 mps 676 mmHg 65%
    20:00 +13°C° 0 mm 2 mps 676 mmHg 69%
    21:00 +13°C° 0 mm 2 mps 676 mmHg 74%
    22:00 +12°C° 0 mm 2 mps 676 mmHg 77%
    23:00 +12°C° 0 mm 1 mps 676 mmHg 79%
    Show more